TimeHST,TemperatureF,Dew PointF,Humidity,Sea Level PressureIn,VisibilityMPH,Wind Direction,Wind SpeedMPH,Gust SpeedMPH,PrecipitationIn,Events,Conditions,WindDirDegrees,DateUTC
12:53 AM,75.9,68.0,76,30.00,10.0,East,21.9,27.6,N/A,,Partly Cloudy,90,2012-12-10 10:53:00
1:53 AM,75.9,66.9,74,29.99,10.0,East,21.9,-,N/A,,Scattered Clouds,80,2012-12-10 11:53:00
2:04 AM,75.2,66.2,73,29.99,10.0,East,20.7,27.6,N/A,,Mostly Cloudy,90,2012-12-10 12:04:00
2:53 AM,75.9,66.9,74,29.98,10.0,East,18.4,-,N/A,,Mostly Cloudy,90,2012-12-10 12:53:00
3:25 AM,75.2,66.2,73,29.98,10.0,East,18.4,-,N/A,,Overcast,90,2012-12-10 13:25:00
3:53 AM,75.9,68.0,76,29.97,10.0,East,18.4,-,N/A,,Overcast,90,2012-12-10 13:53:00
4:53 AM,75.9,68.0,76,29.97,10.0,East,19.6,-,N/A,,Scattered Clouds,100,2012-12-10 14:53:00
5:10 AM,75.2,68.0,78,29.98,10.0,East,20.7,-,N/A,,Mostly Cloudy,90,2012-12-10 15:10:00
5:53 AM,75.9,66.9,74,29.99,10.0,East,23.0,27.6,N/A,,Mostly Cloudy,90,2012-12-10 15:53:00
6:53 AM,75.0,66.9,76,30.01,10.0,East,20.7,-,N/A,,Mostly Cloudy,80,2012-12-10 16:53:00
7:53 AM,75.9,66.0,71,30.01,10.0,East,23.0,27.6,N/A,,Mostly Cloudy,90,2012-12-10 17:53:00
8:05 AM,75.2,66.2,73,30.02,10.0,East,21.9,-,N/A,,Scattered Clouds,80,2012-12-10 18:05:00
8:53 AM,77.0,66.0,69,30.03,10.0,East,19.6,27.6,N/A,,Scattered Clouds,80,2012-12-10 18:53:00
9:53 AM,78.1,66.0,66,30.04,10.0,ENE,24.2,32.2,N/A,,Partly Cloudy,70,2012-12-10 19:53:00
10:26 AM,80.6,66.2,61,30.05,10.0,East,19.6,25.3,N/A,,Mostly Cloudy,80,2012-12-10 20:26:00
10:53 AM,79.0,66.0,64,30.04,10.0,ENE,19.6,-,N/A,,Mostly Cloudy,70,2012-12-10 20:53:00
11:41 AM,80.6,64.4,58,30.04,10.0,ENE,20.7,26.5,N/A,,Mostly Cloudy,70,2012-12-10 21:41:00
11:48 AM,80.6,66.2,61,30.04,10.0,East,20.7,-,N/A,,Mostly Cloudy,80,2012-12-10 21:48:00
11:53 AM,80.1,66.9,64,30.03,10.0,East,17.3,26.5,N/A,,Mostly Cloudy,80,2012-12-10 21:53:00
12:53 PM,81.0,66.9,62,30.01,10.0,ENE,19.6,-,N/A,,Mostly Cloudy,70,2012-12-10 22:53:00
1:34 PM,80.6,64.4,58,30.00,10.0,East,21.9,27.6,N/A,,Scattered Clouds,80,2012-12-10 23:34:00
1:53 PM,80.1,64.9,60,29.99,10.0,East,21.9,26.5,N/A,,Clear,80,2012-12-10 23:53:00
2:53 PM,79.0,64.9,62,29.99,10.0,ENE,18.4,27.6,N/A,,Clear,70,2012-12-11 00:53:00
3:42 PM,78.8,66.2,65,30.00,10.0,ENE,18.4,-,N/A,,Overcast,70,2012-12-11 01:42:00
3:53 PM,78.1,64.9,64,30.00,10.0,ENE,17.3,-,N/A,,Mostly Cloudy,70,2012-12-11 01:53:00
4:27 PM,77.0,64.4,65,30.01,10.0,ENE,19.6,27.6,N/A,,Scattered Clouds,70,2012-12-11 02:27:00
4:53 PM,75.9,64.9,69,30.01,10.0,ENE,17.3,25.3,N/A,,Clear,70,2012-12-11 02:53:00
5:53 PM,75.9,63.0,64,30.01,10.0,ENE,17.3,-,N/A,,Partly Cloudy,60,2012-12-11 03:53:00
6:53 PM,75.9,64.0,67,30.03,10.0,ENE,19.6,-,N/A,,Mostly Cloudy,60,2012-12-11 04:53:00
7:53 PM,75.9,64.0,67,30.05,10.0,ENE,21.9,-,N/A,,Mostly Cloudy,70,2012-12-11 05:53:00
8:44 PM,75.2,64.4,69,30.07,10.0,ENE,21.9,-,N/A,,Mostly Cloudy,70,2012-12-11 06:44:00
8:53 PM,75.0,64.0,69,30.06,10.0,East,19.6,-,N/A,,Mostly Cloudy,80,2012-12-11 06:53:00
9:17 PM,75.2,64.4,69,30.08,10.0,East,19.6,26.5,N/A,,Mostly Cloudy,80,2012-12-11 07:17:00
9:53 PM,75.9,64.0,67,30.08,10.0,East,18.4,-,N/A,,Mostly Cloudy,80,2012-12-11 07:53:00
10:53 PM,75.9,64.9,69,30.09,10.0,ENE,20.7,-,N/A,,Mostly Cloudy,70,2012-12-11 08:53:00
11:53 PM,75.0,64.0,69,30.08,10.0,East,18.4,-,N/A,,Mostly Cloudy,80,2012-12-11 09:53:00